Погода в Каргаполье

Россия / Курганская область     55°57′18″N   64°26′01″E
темп.,
°C
ветер,
м/с
пор.,
м/с
влажн.,
%
обл.,
%
осадки,
мм/ч
давл.,
гПа
погр.,
м
12 мая, ср
ср1223:00+14зюз22405 0.0 102711
02:00+12зюз334629 0.0 102619
05:00+11зюз344951 0.0 102750
08:00+17зсз4640100 0.0 1026298
11:00+21ссз4546100 0.0 10261045
14:00+23ссз564010 0.0 10262138
17:00+22ссз663597 0.0 10262026
20:00+18с335081 0.0 102630
13 мая, чт
чт1323:00+15ссв115416 0.0 102710
02:00+14з115748 0.0 102711
05:00+13зюз3463100 0.0 102756
08:00+18зсз58535 0.0 1026372
11:00+23сз683980 0.0 10251536
14:00+25сз683236 0.0 10242042
17:00+26ссз683312 0.0 10242500
20:00+22ссз334914 0.0 102434
14 мая, пт
пт1423:00+17вюв33655 0.0 102634
02:00+16вюв22695 0.0 102711
05:00+14ю227531 0.0 102816
08:00+20ююз33585 0.0 1028309
11:00+25юз44427 0.0 10271081
14:00+27зюз45315 0.0 10252604
17:00+28зюз462716 0.0 10242891
20:00+23юз33455 0.0 102330
15 мая, сб
сб1523:00+20зюз45475 0.0 102374
02:00+18зюз33485 0.0 102330
05:00+16зсз335710 0.0 102339
08:00+22зсз35466 0.0 1023279
11:00+27з45355 0.0 10221249
14:00+29з562833 0.0 10212165
17:00+29з5730100 0.0 10202565
20:00+24зюз344448 0.0 101940
16 мая, вс
вс1623:00+20з48490 0.0 1019114
02:00+18з411545 0.0 1019177
05:00+16з4860100 0.0 1019139
08:00+21зсз464921 0.0 1020312
11:00+27зсз56375 0.0 10191107
14:00+30зсз56285 0.0 10192292
17:00+30зсз46266 0.0 10182630
20:00+25зюз22395 0.0 101811